Location: Sevilla
(37.3933°N, 5.9839°W)
Time: 05:50:02
(UTC+02:00)

Transit 2A Rocket - Pass Details

Date: 03 July 2024
Orbit: 582 x 910 km, 66.7° (Epoch: 15 July)

Event Time Altitude Azimuth Distance (km) Brightness Sun altitude
Rises 18:20:51 0° 166° (SSE) 3,051 8.0 38.5°
Reaches altitude 10° 18:23:41 10° 148° (SSE) 2,201 7.2 37.9°
Maximum altitude 18:27:11 19° 104° (ESE) 1,742 6.6 37.3°
Drops below altitude 10° 18:30:53 10° 60° (ENE) 2,367 7.2 36.5°
Sets 18:34:04 0° 44° (NE) 3,366 8.0 35.9°
